Tracking 29892 objects as of 21-Nov-2024
HD Live streaming from Space Station
objects crossing your sky now

FENGYUN 1C DEB

Track FENGYUN 1C DEB now!
10-day predictions


NORAD ID: 30809
Int'l Code: 1999-025AUT
Perigee: 777.5 km
Apogee: 857.7 km
Inclination: 98.8 °
Period: 101.1 minutes
Semi major axis: 7188 km
RCS: 0.0182 m2 (small)
Launch date: May 10, 1999
Source: People's Republic of China (PRC)
Launch site: Taiyaun Space Center, China (TSC)

Note: This is SATELLITE DEBRIS
Your satellite tracking list
Your tracking list is empty




NASA's NSSDC Master Catalog

Two Line Element Set (TLE):
1 30809U 99025AUT 24325.51213613  .00008619  00000-0  36807-2 0  9993
2 30809  98.8017  46.5093 0055784 215.8562 143.8867 14.24402937916122
Source of the keplerian elements: AFSPC